Total_Precipitation_Accumulation
2.32 2.43 2.23 2.26 2.05 2.17 2.52 2.82 2.84 3.03 3.16 3.02 2.65 2.43 2.46 2.42 2.19 2.17 2.44 2.62 2.63 2.52 2.61 2.58 2.30 2.18 2.13 1.82 1.59 1.45 1.29 1.17 1.04 0.88 0.80 0.77 0.65 0.46 0.30 0.25 0.25 0.27 0.24
2.52 2.60 2.48 2.43 2.12 2.12 2.44 2.81 2.88 3.17 3.19 3.20 2.70 2.36 2.29 2.29 2.08 1.99 2.08 2.48 2.47 2.32 2.34 2.54 2.59 2.53 2.43 2.15 1.89 1.64 1.46 1.30 1.14 0.92 0.80 0.75 0.69 0.58 0.49 0.39 0.35 0.33 0.28
2.74 2.90 2.81 2.45 2.21 2.28 2.48 2.52 2.66 3.14 3.01 2.96 2.79 2.69 2.63 2.40 2.15 2.06 1.98 2.13 2.05 2.16 2.25 2.33 2.52 2.72 2.75 2.61 2.38 2.11 1.85 1.53 1.24 1.00 0.84 0.74 0.67 0.60 0.56 0.50 0.46 0.44 0.35
2.46 2.68 2.45 2.07 2.15 2.35 2.50 2.51 2.53 2.91 3.03 3.04 3.02 2.87 2.72 2.48 2.12 1.98 1.93 1.86 1.85 1.67 1.92 2.15 2.39 2.64 2.94 3.06 3.10 3.04 2.64 2.04 1.55 1.20 0.98 0.86 0.76 0.64 0.52 0.48 0.48 0.51 0.41
1.69 1.91 1.88 1.80 1.81 2.06 2.11 1.87 2.11 2.42 2.62 2.74 2.55 2.41 2.10 1.88 1.73 1.64 1.62 1.51 1.67 1.75 1.85 1.85 2.13 2.36 2.83 3.46 3.89 3.88 3.48 2.75 2.04 1.63 1.40 1.21 1.11 0.91 0.66 0.55 0.56 0.54 0.47
1.45 1.63 1.64 1.50 1.49 1.62 1.67 1.85 2.14 2.21 2.13 2.18 1.90 1.83 1.75 1.55 1.51 1.47 1.30 1.31 1.46 1.44 1.55 1.74 2.00 1.83 2.29 3.00 3.54 3.81 3.75 3.40 2.72 2.20 1.92 1.77 1.69 1.38 0.99 0.82 0.77 0.67 0.58
1.51 1.66 1.50 1.51 1.43 1.47 1.47 1.56 1.77 1.84 1.62 1.79 2.03 1.85 1.56 1.33 1.35 1.32 1.26 1.32 1.39 1.46 1.58 1.91 2.08 2.06 1.90 1.95 2.26 2.90 3.51 3.77 3.57 2.99 2.47 2.18 2.10 1.80 1.34 1.14 0.98 0.87 0.82
1.49 1.38 1.48 1.32 1.28 1.43 1.40 1.48 1.68 1.69 1.48 1.61 1.88 1.95 1.70 1.62 1.35 0.96 1.14 1.25 1.29 1.55 1.63 1.65 1.89 2.26 2.21 2.32 1.80 2.06 2.97 3.55 3.95 3.93 3.38 2.81 2.51 2.12 1.70 1.50 1.29 1.12 1.04
1.23 1.23 1.23 1.14 1.19 1.10 1.25 1.42 1.54 1.69 1.65 1.48 1.46 1.73 1.68 1.64 1.47 1.09 0.96 1.05 1.27 1.51 1.50 1.60 1.66 1.97 2.25 2.58 2.46 2.03 2.19 2.59 3.45 4.21 4.17 3.45 2.63 2.06 1.80 1.76 1.71 1.48 1.29
1.25 1.21 1.13 1.19 1.19 1.05 1.28 1.10 1.24 1.51 1.62 1.44 1.46 1.41 1.43 1.54 1.58 1.45 1.24 1.08 1.22 1.30 1.38 1.42 1.57 1.86 2.06 2.35 2.46 1.97 1.66 1.81 2.56 3.49 3.99 3.80 3.08 2.35 1.96 2.03 2.27 2.15 1.78
1.37 1.15 1.15 1.28 1.32 1.17 1.19 1.20 1.37 1.38 1.41 1.41 1.41 1.40 1.56 1.59 1.44 1.47 1.47 1.36 1.29 1.08 1.22 1.44 1.58 1.72 1.84 2.11 2.40 2.12 1.92 1.74 1.77 2.16 2.67 3.09 3.23 2.94 2.61 2.59 2.89 3.07 2.89
1.35 1.23 1.28 1.43 1.39 1.34 1.29 1.25 1.27 1.31 1.45 1.55 1.53 1.43 1.50 1.55 1.50 1.58 1.42 1.34 1.38 1.20 1.32 1.57 1.64 1.70 1.71 1.88 1.89 1.85 1.76 1.65 1.56 1.53 1.67 1.95 2.34 2.60 2.62 2.75 3.13 3.49 3.64
1.19 1.26 1.28 1.42 1.40 1.42 1.34 1.44 1.45 1.39 1.46 1.54 1.50 1.45 1.40 1.36 1.46 1.59 1.60 1.44 1.42 1.36 1.54 1.64 1.73 1.76 1.68 1.86 1.93 1.83 1.53 1.44 1.32 1.24 1.30 1.42 1.58 1.88 2.20 2.44 2.79 3.16 3.49
1.07 1.09 1.16 1.21 1.25 1.30 1.28 1.58 1.48 1.48 1.54 1.48 1.38 1.65 1.58 1.37 1.50 1.62 1.78 1.90 1.78 1.67 1.79 1.84 1.91 1.89 1.99 2.05 2.06 1.94 1.62 1.56 1.38 1.26 1.17 1.12 1.14 1.23 1.45 1.68 1.95 2.27 2.61
1.16 1.17 1.18 1.32 1.42 1.44 1.47 1.65 1.60 1.56 1.67 1.51 1.48 1.61 1.57 1.51 1.55 1.55 1.85 2.07 2.20 2.08 2.00 1.95 1.80 1.72 1.79 1.86 1.87 1.61 1.44 1.46 1.36 1.22 1.12 1.06 1.02 1.04 1.09 1.15 1.22 1.31 1.40
1.29 1.34 1.35 1.43 1.50 1.48 1.48 1.63 1.63 1.69 1.75 1.65 1.63 1.65 1.62 1.58 1.69 1.63 1.75 1.96 2.13 2.31 2.19 1.83 1.69 1.61 1.58 1.42 1.45 1.32 1.28 1.40 1.27 1.14 1.08 1.05 1.04 1.05 1.03 1.03 1.03 1.04 1.07
1.32 1.35 1.42 1.50 1.47 1.53 1.65 1.74 1.62 1.66 1.76 1.91 1.85 1.84 1.89 1.97 1.91 1.82 1.88 1.94 2.05 2.29 2.25 1.85 1.78 1.76 1.64 1.45 1.32 1.24 1.19 1.27 1.30 1.38 1.23 1.12 1.03 0.96 0.94 0.92 0.94 0.97 1.00
1.51 1.47 1.51 1.54 1.44 1.47 1.66 1.74 1.72 1.74 1.77 1.79 1.95 2.17 2.14 2.12 2.02 1.88 1.96 1.92 1.96 2.23 2.14 1.89 1.92 1.93 1.86 1.63 1.51 1.39 1.23 1.21 1.28 1.43 1.25 1.13 1.05 1.00 0.96 0.94 0.94 0.93 0.92
1.76 1.79 1.77 1.67 1.58 1.55 1.62 1.71 1.79 1.82 1.86 1.92 2.03 2.12 2.15 2.28 2.14 2.04 1.98 1.94 1.99 2.15 2.22 2.06 2.01 2.14 2.07 1.83 1.70 1.50 1.31 1.33 1.19 1.31 1.27 1.18 1.14 1.08 1.02 0.94 0.91 0.88 0.85
1.82 1.96 1.92 1.84 1.80 1.70 1.58 1.57 1.61 1.69 1.87 2.02 2.07 1.98 2.05 2.26 2.31 2.27 2.10 2.04 2.12 2.25 2.30 2.26 2.21 2.29 2.29 2.22 2.04 1.77 1.63 1.52 1.37 1.26 1.31 1.20 1.15 1.10 1.03 0.94 0.89 0.87 0.87
1.76 1.94 2.01 2.02 1.96 1.81 1.58 1.60 1.71 1.71 1.87 1.93 1.89 1.79 1.78 1.96 2.16 2.25 2.06 2.04 2.16 2.18 2.18 2.23 2.23 2.28 2.30 2.42 2.27 1.98 1.77 1.64 1.43 1.26 1.27 1.18 1.13 1.04 1.05 1.04 0.96 0.88 0.81
2.18 2.23 2.19 2.14 2.05 1.70 1.74 1.73 1.71 1.73 1.83 1.87 1.84 1.78 1.66 1.62 1.64 1.79 1.94 2.06 2.19 2.16 2.15 2.29 2.45 2.50 2.48 2.47 2.43 2.22 1.96 1.73 1.58 1.40 1.44 1.40 1.31 1.24 1.06 0.96 0.99 0.91 0.82
2.57 2.59 2.47 2.30 2.16 2.05 1.93 1.71 1.66 1.58 1.60 1.64 1.69 1.69 1.45 1.32 1.42 1.37 1.54 1.69 1.82 1.90 1.92 2.07 2.23 2.35 2.46 2.59 2.60 2.37 2.17 1.98 1.72 1.52 1.49 1.37 1.27 1.28 1.17 1.08 1.13 0.98 0.90
2.49 2.51 2.45 2.32 2.22 2.12 1.97 1.64 1.54 1.35 1.40 1.46 1.49 1.48 1.42 1.36 1.35 1.40 1.42 1.41 1.40 1.48 1.59 1.60 1.73 1.97 2.22 2.42 2.56 2.46 2.34 2.04 1.74 1.52 1.47 1.34 1.18 1.14 1.09 1.11 1.20 1.10 0.98
2.18 2.10 2.08 2.09 2.06 2.10 2.02 1.65 1.45 1.31 1.43 1.46 1.47 1.49 1.51 1.43 1.54 1.41 1.37 1.42 1.44 1.47 1.52 1.56 1.57 1.73 1.98 2.16 2.24 2.29 2.27 2.12 1.87 1.63 1.52 1.48 1.27 1.17 1.12 1.03 1.04 1.09 0.97
2.07 2.03 1.96 1.98 1.97 1.95 1.91 1.53 1.39 1.33 1.46 1.48 1.53 1.53 1.52 1.40 1.40 1.25 1.19 1.32 1.35 1.39 1.44 1.45 1.47 1.50 1.58 1.89 2.18 2.00 2.00 2.02 1.84 1.58 1.35 1.39 1.34 1.31 1.21 0.95 0.84 0.85 0.80